Time,TemperatureF,DewpointF,PressureIn,WindDirection,WindDirectionDegrees,WindSpeedMPH,WindSpeedGustMPH,Humidity,HourlyPrecipIn,Conditions,Clouds,dailyrainin,SoftwareType,DateUTC
2013-05-20 00:01:00,52.0,49.0,30.35,West,280,0.0,1.0,89,0.00,,,0.00,,2013-05-20 07:01:00,
2013-05-20 00:11:00,52.0,49.0,30.35,West,280,0.0,1.0,89,0.00,,,0.00,,2013-05-20 07:11:00,
2013-05-20 00:21:00,52.0,49.0,30.35,West,280,0.0,1.0,89,0.00,,,0.00,,2013-05-20 07:21:00,
2013-05-20 00:32:00,51.0,48.0,30.35,West,280,0.0,0.0,90,0.00,,,0.00,,2013-05-20 07:32:00,
2013-05-20 00:41:00,51.0,48.0,30.35,West,280,0.0,0.0,90,0.00,,,0.00,,2013-05-20 07:41:00,
2013-05-20 00:52:00,51.0,48.0,30.35,West,280,0.0,0.0,90,0.00,,,0.00,,2013-05-20 07:52:00,
2013-05-20 01:01:00,51.0,48.0,30.35,West,276,0.0,0.0,91,0.00,,,0.00,,2013-05-20 08:01:00,
2013-05-20 01:11:00,51.0,48.0,30.35,West,276,0.0,0.0,91,0.00,,,0.00,,2013-05-20 08:11:00,
2013-05-20 01:21:00,51.0,48.0,30.35,West,276,0.0,0.0,91,0.00,,,0.00,,2013-05-20 08:21:00,
2013-05-20 01:31:00,50.0,47.0,30.35,West,276,0.0,0.0,90,0.00,,,0.00,,2013-05-20 08:31:00,
2013-05-20 01:41:00,50.0,47.0,30.35,West,276,0.0,0.0,90,0.00,,,0.00,,2013-05-20 08:41:00,
2013-05-20 01:52:00,50.0,47.0,30.35,West,276,0.0,0.0,90,0.00,,,0.00,,2013-05-20 08:52:00,
2013-05-20 02:01:00,49.0,46.0,30.35,West,276,0.0,0.0,91,0.00,,,0.00,,2013-05-20 09:01:00,
2013-05-20 02:12:00,49.0,46.0,30.35,West,276,0.0,0.0,91,0.00,,,0.00,,2013-05-20 09:12:00,
2013-05-20 02:21:00,49.0,46.0,30.35,West,276,0.0,0.0,91,0.00,,,0.00,,2013-05-20 09:21:00,
2013-05-20 02:32:00,48.0,46.0,30.35,West,276,0.0,0.0,92,0.00,,,0.00,,2013-05-20 09:32:00,
2013-05-20 02:42:00,48.0,46.0,30.35,West,276,0.0,0.0,92,0.00,,,0.00,,2013-05-20 09:42:00,
2013-05-20 02:52:00,48.0,46.0,30.35,West,276,0.0,0.0,92,0.00,,,0.00,,2013-05-20 09:52:00,
2013-05-20 03:03:00,49.0,47.0,30.35,West,276,0.0,0.0,93,0.00,,,0.00,,2013-05-20 10:03:00,
2013-05-20 03:12:00,49.0,47.0,30.35,West,276,0.0,0.0,93,0.00,,,0.00,,2013-05-20 10:12:00,
2013-05-20 03:22:00,49.0,47.0,30.35,West,276,0.0,0.0,93,0.00,,,0.00,,2013-05-20 10:22:00,
2013-05-20 03:32:00,49.0,47.0,30.35,West,276,0.0,0.0,92,0.00,,,0.00,,2013-05-20 10:32:00,
2013-05-20 03:41:00,49.0,47.0,30.35,West,276,0.0,0.0,92,0.00,,,0.00,,2013-05-20 10:41:00,
2013-05-20 03:52:00,49.0,47.0,30.35,West,276,0.0,0.0,92,0.00,,,0.00,,2013-05-20 10:52:00,
2013-05-20 04:02:00,48.0,46.0,30.34,West,276,0.0,0.0,93,0.00,,,0.00,,2013-05-20 11:02:00,
2013-05-20 04:12:00,48.0,46.0,30.34,West,276,0.0,0.0,93,0.00,,,0.00,,2013-05-20 11:12:00,
2013-05-20 04:21:00,48.0,46.0,30.34,West,276,0.0,0.0,93,0.00,,,0.00,,2013-05-20 11:21:00,
2013-05-20 04:32:00,48.0,46.0,30.34,West,276,0.0,0.0,94,0.00,,,0.00,,2013-05-20 11:32:00,
2013-05-20 04:41:00,48.0,46.0,30.34,West,276,0.0,0.0,94,0.00,,,0.00,,2013-05-20 11:41:00,
2013-05-20 04:52:00,48.0,46.0,30.34,West,276,0.0,0.0,94,0.00,,,0.00,,2013-05-20 11:52:00,
2013-05-20 05:01:00,49.0,47.0,30.32,West,276,0.0,0.0,93,0.00,,,0.00,,2013-05-20 12:01:00,
2013-05-20 05:11:00,49.0,47.0,30.32,West,276,0.0,0.0,93,0.00,,,0.00,,2013-05-20 12:11:00,
2013-05-20 05:21:00,49.0,47.0,30.32,West,276,0.0,0.0,93,0.00,,,0.00,,2013-05-20 12:21:00,
2013-05-20 05:31:00,50.0,48.0,30.32,West,276,0.0,0.0,92,0.00,,,0.00,,2013-05-20 12:31:00,
2013-05-20 05:41:00,50.0,48.0,30.32,West,276,0.0,0.0,92,0.00,,,0.00,,2013-05-20 12:41:00,
2013-05-20 05:52:00,50.0,48.0,30.32,West,276,0.0,0.0,92,0.00,,,0.00,,2013-05-20 12:52:00,
2013-05-20 06:01:00,50.0,48.0,30.31,West,276,0.0,0.0,92,0.00,,,0.00,,2013-05-20 13:01:00,
2013-05-20 06:11:00,50.0,48.0,30.31,West,276,0.0,0.0,92,0.00,,,0.00,,2013-05-20 13:11:00,
2013-05-20 06:22:00,50.0,48.0,30.31,West,276,0.0,0.0,92,0.00,,,0.00,,2013-05-20 13:22:00,
2013-05-20 06:31:00,50.0,48.0,30.30,West,276,0.0,0.0,92,0.00,,,0.00,,2013-05-20 13:31:00,
2013-05-20 06:41:00,50.0,48.0,30.30,West,276,0.0,0.0,92,0.00,,,0.00,,2013-05-20 13:41:00,
2013-05-20 06:52:00,50.0,48.0,30.30,West,276,0.0,0.0,92,0.00,,,0.00,,2013-05-20 13:52:00,
2013-05-20 07:01:00,51.0,48.0,30.29,West,272,1.0,2.0,90,0.00,,,0.00,,2013-05-20 14:01:00,
2013-05-20 07:11:00,51.0,48.0,30.29,West,272,1.0,2.0,90,0.00,,,0.00,,2013-05-20 14:11:00,
2013-05-20 07:22:00,51.0,48.0,30.29,West,272,1.0,2.0,90,0.00,,,0.00,,2013-05-20 14:22:00,
2013-05-20 07:31:00,51.0,48.0,30.29,NE,56,0.0,1.0,90,0.00,,,0.00,,2013-05-20 14:31:00,
2013-05-20 07:41:00,51.0,48.0,30.29,NE,56,0.0,1.0,90,0.00,,,0.00,,2013-05-20 14:41:00,
2013-05-20 07:52:00,51.0,48.0,30.29,NE,56,0.0,1.0,90,0.00,,,0.00,,2013-05-20 14:52:00,
2013-05-20 08:01:00,51.0,48.0,30.28,SSE,166,0.0,2.0,90,0.00,,,0.00,,2013-05-20 15:01:00,
2013-05-20 08:11:00,51.0,48.0,30.28,SSE,166,0.0,2.0,90,0.00,,,0.00,,2013-05-20 15:11:00,
2013-05-20 08:21:00,51.0,48.0,30.28,SSE,166,0.0,2.0,90,0.00,,,0.00,,2013-05-20 15:21:00,
2013-05-20 08:33:00,52.0,49.0,30.28,ESE,107,0.0,1.0,89,0.00,,,0.00,,2013-05-20 15:33:00,
2013-05-20 08:42:00,52.0,49.0,30.28,ESE,107,0.0,1.0,89,0.00,,,0.00,,2013-05-20 15:42:00,
2013-05-20 08:53:00,52.0,49.0,30.28,ESE,107,0.0,1.0,89,0.00,,,0.00,,2013-05-20 15:53:00,
2013-05-20 09:02:00,52.0,48.0,30.27,NW,326,0.0,3.0,87,0.00,,,0.00,,2013-05-20 16:02:00,
2013-05-20 09:12:00,52.0,48.0,30.27,NW,326,0.0,3.0,87,0.00,,,0.00,,2013-05-20 16:12:00,
2013-05-20 09:22:00,52.0,48.0,30.27,NW,326,0.0,3.0,87,0.00,,,0.00,,2013-05-20 16:22:00,
2013-05-20 09:33:00,53.0,49.0,30.27,SW,219,0.0,0.0,87,0.00,,,0.00,,2013-05-20 16:33:00,
2013-05-20 09:42:00,53.0,49.0,30.27,SW,219,0.0,0.0,87,0.00,,,0.00,,2013-05-20 16:42:00,
2013-05-20 09:53:00,53.0,49.0,30.27,SW,219,0.0,0.0,87,0.00,,,0.00,,2013-05-20 16:53:00,
2013-05-20 10:02:00,53.0,49.0,30.25,ESE,102,0.0,1.0,86,0.00,,,0.00,,2013-05-20 17:02:00,
2013-05-20 10:11:00,53.0,49.0,30.25,ESE,102,0.0,1.0,86,0.00,,,0.00,,2013-05-20 17:11:00,
2013-05-20 10:22:00,53.0,49.0,30.25,ESE,102,0.0,1.0,86,0.00,,,0.00,,2013-05-20 17:22:00,
2013-05-20 10:32:00,53.0,49.0,30.24,West,281,0.0,3.0,85,0.00,,,0.00,,2013-05-20 17:32:00,
2013-05-20 10:44:00,53.0,49.0,30.24,West,281,0.0,3.0,85,0.00,,,0.00,,2013-05-20 17:44:00,
2013-05-20 10:53:00,53.0,49.0,30.24,West,281,0.0,3.0,85,0.00,,,0.00,,2013-05-20 17:53:00,
2013-05-20 11:02:00,55.0,50.0,30.22,East,98,0.0,4.0,84,0.00,,,0.00,,2013-05-20 18:02:00,
2013-05-20 11:12:00,55.0,50.0,30.22,East,98,0.0,4.0,84,0.00,,,0.00,,2013-05-20 18:12:00,
2013-05-20 11:23:00,55.0,50.0,30.22,East,98,0.0,4.0,84,0.00,,,0.00,,2013-05-20 18:23:00,
2013-05-20 11:32:00,57.0,50.0,30.21,SSW,211,1.0,4.0,78,0.00,,,0.00,,2013-05-20 18:32:00,
2013-05-20 11:41:00,57.0,50.0,30.21,SSW,211,1.0,4.0,78,0.00,,,0.00,,2013-05-20 18:41:00,
2013-05-20 11:55:00,57.0,50.0,30.21,SSW,211,1.0,4.0,78,0.00,,,0.00,,2013-05-20 18:55:00,
2013-05-20 12:04:00,57.0,50.0,30.19,WNW,284,2.0,3.0,77,0.00,,,0.00,,2013-05-20 19:04:00,
2013-05-20 12:11:00,57.0,50.0,30.19,WNW,284,2.0,3.0,77,0.00,,,0.00,,2013-05-20 19:11:00,
2013-05-20 12:21:00,57.0,50.0,30.19,WNW,284,2.0,3.0,77,0.00,,,0.00,,2013-05-20 19:21:00,
2013-05-20 12:32:00,60.0,52.0,30.19,SSW,211,1.0,6.0,74,0.00,,,0.00,,2013-05-20 19:32:00,
2013-05-20 12:41:00,60.0,52.0,30.19,SSW,211,1.0,6.0,74,0.00,,,0.00,,2013-05-20 19:41:00,
2013-05-20 12:52:00,60.0,52.0,30.19,SSW,211,1.0,6.0,74,0.00,,,0.00,,2013-05-20 19:52:00,
2013-05-20 13:01:00,59.0,50.0,30.17,WNW,293,4.0,9.0,73,0.00,,,0.00,,2013-05-20 20:01:00,
2013-05-20 13:11:00,59.0,50.0,30.17,WNW,293,4.0,9.0,73,0.00,,,0.00,,2013-05-20 20:11:00,
2013-05-20 13:21:00,59.0,50.0,30.17,WNW,293,4.0,9.0,73,0.00,,,0.00,,2013-05-20 20:21:00,
2013-05-20 13:32:00,62.0,51.0,30.15,NW,307,3.0,5.0,68,0.00,,,0.00,,2013-05-20 20:32:00,
2013-05-20 13:42:00,62.0,51.0,30.15,NW,307,3.0,5.0,68,0.00,,,0.00,,2013-05-20 20:42:00,
2013-05-20 13:52:00,62.0,51.0,30.15,NW,307,3.0,5.0,68,0.00,,,0.00,,2013-05-20 20:52:00,
2013-05-20 14:01:00,61.0,51.0,30.14,NNE,31,4.0,6.0,70,0.00,,,0.00,,2013-05-20 21:01:00,
2013-05-20 14:11:00,61.0,51.0,30.14,NNE,31,4.0,6.0,70,0.00,,,0.00,,2013-05-20 21:11:00,
2013-05-20 14:21:00,61.0,51.0,30.14,NNE,31,4.0,6.0,70,0.00,,,0.00,,2013-05-20 21:21:00,
2013-05-20 14:32:00,62.0,52.0,30.12,ENE,72,2.0,6.0,69,0.00,,,0.00,,2013-05-20 21:32:00,
2013-05-20 14:42:00,62.0,52.0,30.12,ENE,72,2.0,6.0,69,0.00,,,0.00,,2013-05-20 21:42:00,
2013-05-20 14:53:00,62.0,52.0,30.12,ENE,72,2.0,6.0,69,0.00,,,0.00,,2013-05-20 21:53:00,
2013-05-20 15:02:00,65.0,51.0,30.11,ENE,68,1.0,4.0,61,0.00,,,0.00,,2013-05-20 22:02:00,
2013-05-20 15:12:00,65.0,51.0,30.11,ENE,68,1.0,4.0,61,0.00,,,0.00,,2013-05-20 22:12:00,
2013-05-20 15:23:00,65.0,51.0,30.11,ENE,68,1.0,4.0,61,0.00,,,0.00,,2013-05-20 22:23:00,
2013-05-20 15:33:00,65.0,51.0,30.09,NW,309,1.0,5.0,61,0.00,,,0.00,,2013-05-20 22:33:00,
2013-05-20 15:42:00,65.0,51.0,30.09,NW,309,1.0,5.0,61,0.00,,,0.00,,2013-05-20 22:42:00,
2013-05-20 15:52:00,65.0,51.0,30.09,NW,309,1.0,5.0,61,0.00,,,0.00,,2013-05-20 22:52:00,
2013-05-20 16:02:00,68.0,51.0,30.07,WNW,284,1.0,5.0,54,0.00,,,0.00,,2013-05-20 23:02:00,
2013-05-20 16:12:00,68.0,51.0,30.07,WNW,284,1.0,5.0,54,0.00,,,0.00,,2013-05-20 23:12:00,
2013-05-20 16:22:00,68.0,51.0,30.07,WNW,284,1.0,5.0,54,0.00,,,0.00,,2013-05-20 23:22:00,
2013-05-20 16:32:00,67.0,51.0,30.05,West,266,2.0,6.0,56,0.00,,,0.00,,2013-05-20 23:32:00,
2013-05-20 16:41:00,67.0,51.0,30.05,West,266,2.0,6.0,56,0.00,,,0.00,,2013-05-20 23:41:00,
2013-05-20 16:53:00,67.0,51.0,30.05,West,266,2.0,6.0,56,0.00,,,0.00,,2013-05-20 23:53:00,
2013-05-20 17:01:00,67.0,50.0,30.03,West,274,1.0,8.0,54,0.00,,,0.00,,2013-05-21 00:01:00,
2013-05-20 17:11:00,67.0,50.0,30.03,West,274,1.0,8.0,54,0.00,,,0.00,,2013-05-21 00:11:00,
2013-05-20 17:21:00,67.0,50.0,30.03,West,274,1.0,8.0,54,0.00,,,0.00,,2013-05-21 00:21:00,
2013-05-20 17:31:00,68.0,49.0,30.01,NNW,340,2.0,7.0,50,0.00,,,0.00,,2013-05-21 00:31:00,
2013-05-20 17:41:00,68.0,49.0,30.01,NNW,340,2.0,7.0,50,0.00,,,0.00,,2013-05-21 00:41:00,
2013-05-20 17:52:00,68.0,49.0,30.01,NNW,340,2.0,7.0,50,0.00,,,0.00,,2013-05-21 00:52:00,
2013-05-20 18:01:00,68.0,46.0,30.00,SW,219,1.0,8.0,46,0.00,,,0.00,,2013-05-21 01:01:00,
2013-05-20 18:11:00,68.0,46.0,30.00,SW,219,1.0,8.0,46,0.00,,,0.00,,2013-05-21 01:11:00,
2013-05-20 18:21:00,68.0,46.0,30.00,SW,219,1.0,8.0,46,0.00,,,0.00,,2013-05-21 01:21:00,
2013-05-20 18:32:00,67.0,47.0,29.98,WSW,252,2.0,8.0,48,0.00,,,0.00,,2013-05-21 01:32:00,
2013-05-20 18:42:00,67.0,47.0,29.98,WSW,252,2.0,8.0,48,0.00,,,0.00,,2013-05-21 01:42:00,
2013-05-20 18:52:00,67.0,47.0,29.98,WSW,252,2.0,8.0,48,0.00,,,0.00,,2013-05-21 01:52:00,
2013-05-20 19:01:00,68.0,49.0,29.97,WSW,258,2.0,4.0,50,0.00,,,0.00,,2013-05-21 02:01:00,
2013-05-20 19:11:00,68.0,49.0,29.97,WSW,258,2.0,4.0,50,0.00,,,0.00,,2013-05-21 02:11:00,
2013-05-20 19:21:00,68.0,49.0,29.97,WSW,258,2.0,4.0,50,0.00,,,0.00,,2013-05-21 02:21:00,
2013-05-20 19:32:00,68.0,47.0,29.96,WNW,295,1.0,6.0,47,0.00,,,0.00,,2013-05-21 02:32:00,
2013-05-20 19:41:00,68.0,47.0,29.96,WNW,295,1.0,6.0,47,0.00,,,0.00,,2013-05-21 02:41:00,
2013-05-20 19:52:00,68.0,47.0,29.96,WNW,295,1.0,6.0,47,0.00,,,0.00,,2013-05-21 02:52:00,
2013-05-20 20:02:00,63.0,51.0,29.95,NW,311,2.0,5.0,65,0.00,,,0.00,,2013-05-21 03:02:00,
2013-05-20 20:11:00,63.0,51.0,29.95,NW,311,2.0,5.0,65,0.00,,,0.00,,2013-05-21 03:11:00,
2013-05-20 20:21:00,63.0,51.0,29.95,NW,311,2.0,5.0,65,0.00,,,0.00,,2013-05-21 03:21:00,
2013-05-20 20:33:00,61.0,52.0,29.95,NW,311,3.0,8.0,71,0.00,,,0.00,,2013-05-21 03:33:00,
2013-05-20 20:42:00,61.0,52.0,29.95,NW,311,3.0,8.0,71,0.00,,,0.00,,2013-05-21 03:42:00,
2013-05-20 20:53:00,61.0,52.0,29.95,NW,311,3.0,8.0,71,0.00,,,0.00,,2013-05-21 03:53:00,
2013-05-20 21:03:00,59.0,51.0,29.95,NW,304,1.0,4.0,74,0.00,,,0.00,,2013-05-21 04:03:00,
2013-05-20 21:12:00,59.0,51.0,29.95,NW,304,1.0,4.0,74,0.00,,,0.00,,2013-05-21 04:12:00,
2013-05-20 21:23:00,59.0,51.0,29.95,NW,304,1.0,4.0,74,0.00,,,0.00,,2013-05-21 04:23:00,
2013-05-20 21:33:00,59.0,51.0,29.95,NW,304,1.0,4.0,74,0.00,,,0.00,,2013-05-21 04:33:00,
2013-05-20 21:42:00,59.0,51.0,29.95,NW,304,1.0,4.0,74,0.00,,,0.00,,2013-05-21 04:42:00,
2013-05-20 22:02:00,56.0,48.0,29.94,WNW,288,1.0,1.0,75,0.00,,,0.00,,2013-05-21 05:02:00,
2013-05-20 22:12:00,56.0,48.0,29.94,WNW,288,1.0,1.0,75,0.00,,,0.00,,2013-05-21 05:12:00,
2013-05-20 22:21:00,56.0,48.0,29.94,WNW,288,1.0,1.0,75,0.00,,,0.00,,2013-05-21 05:21:00,
2013-05-20 22:31:00,56.0,49.0,29.93,ESE,112,1.0,2.0,76,0.00,,,0.00,,2013-05-21 05:31:00,
2013-05-20 22:42:00,56.0,49.0,29.93,ESE,112,1.0,2.0,76,0.00,,,0.00,,2013-05-21 05:42:00,
2013-05-20 22:52:00,56.0,49.0,29.93,ESE,112,1.0,2.0,76,0.00,,,0.00,,2013-05-21 05:52:00,
2013-05-20 23:01:00,55.0,48.0,29.92,ESE,110,0.0,1.0,78,0.00,,,0.00,,2013-05-21 06:01:00,
2013-05-20 23:11:00,55.0,48.0,29.92,ESE,110,0.0,1.0,78,0.00,,,0.00,,2013-05-21 06:11:00,
2013-05-20 23:21:00,55.0,48.0,29.92,ESE,110,0.0,1.0,78,0.00,,,0.00,,2013-05-21 06:21:00,
2013-05-20 23:32:00,54.0,48.0,29.91,ESE,106,0.0,1.0,80,0.00,,,0.00,,2013-05-21 06:32:00,
2013-05-20 23:41:00,54.0,48.0,29.91,ESE,106,0.0,1.0,80,0.00,,,0.00,,2013-05-21 06:41:00,
2013-05-20 23:52:00,54.0,48.0,29.91,ESE,106,0.0,1.0,80,0.00,,,0.00,,2013-05-21 06:52:00,